Aérodrome :
LOGIN :

S'inscrire | Disclaimer

   EN    FR    IT 

 










Légende :    VFR   VFR Marginal   IFR   IFR Intensif   IFR Très Intensif
Visi : 
Plafond : 
>= 8 km
>= 3000ft
5 à 8 km
1000 à 3000 ft
1500m à 5 km
500 à 1000 ft
800 à 1500m
200 à 500 ft
< 800m
< 200 ft
Symboles :   Orages  Brouillard  Fortes neiges  Fortes précipitations  Vent > 20 kt
SIGMETs :   Divers  Orages  Givrage  Turbulence  Onde Orograph.  Cendres Volcan.






- Altitude de l'aérodrome : 14 ft
- Code IATA : RVK


ENRM - Rørvik , Ryum

DERNIER METAR :
  • 100750Z 08005KT 040V120 CAVOK 16/10 Q1025

METARs EXPIRÉS :
  • 100720Z 06004KT 350V140 CAVOK 15/11 Q1025
  • 100650Z 08005KT 050V140 CAVOK 14/11 Q1026
  • 100620Z 08005KT CAVOK 13/10 Q1026
  • 100550Z 07003KT 020V100 CAVOK 12/12 Q1026
  • 100520Z VRB02KT CAVOK 11/11 Q1026

TAF TAF ENRM
Valide du 10 à 05h jusqu'au 10 à 15h UTC


100500Z 1005/1015 04007KT CAVOK



MET'MAP, la Météo Aéronautique d'un coup d'oeil ! - Copyright ORBIFLY Décembre 2007 - Disclaimer

ORBIFLY MET'MAP TEAM :

Programmation & Développement : Alexandra Zaïnal
Sur une idée originale de : Baudouin d'Aumeries
Assistance à la programmation : Marc-Olivier Méhu
Soutien technique & logistique : Manuel Goepfert

Contact : metmap@orbifly.com




SOURCES & CREDITS :

   NOAA